When you browse on this site, cookies collect data to enhance your experience and personalize the content and advertising you see.
Visit our Privacy Policy to learn more. By continuing to use the site, you agree to this use of cookies and data.

Meteo pe oră la Lewis

Astăzi, 11 August, Marţi

Timp Temperatura Precipitaţii Vânt Presiune Umiditate
00:00 +13°C° 0 mm 3 m/s 756 mmHg 85%
01:00 +13°C° 0 mm 3 m/s 756 mmHg 84%
02:00 +13°C° 0 mm 3 m/s 756 mmHg 84%
03:00 +13°C° 0 mm 3 m/s 756 mmHg 83%
04:00 +13°C° 0 mm 3 m/s 755 mmHg 83%
05:00 +13°C° 0 mm 3 m/s 755 mmHg 84%
06:00 +14°C° 0 mm 3 m/s 755 mmHg 84%
07:00 +16°C° 0 mm 3 m/s 755 mmHg 82%
08:00 +16°C° 0 mm 3 m/s 755 mmHg 79%
09:00 +17°C° 0 mm 2 m/s 755 mmHg 76%
10:00 +17°C° 0.3 mm 2 m/s 755 mmHg 79%
11:00 +17°C° 0.3 mm 2 m/s 754 mmHg 81%
12:00 +18°C° 0.3 mm 1 m/s 754 mmHg 83%
13:00 +18°C° 0.1 mm 1 m/s 754 mmHg 82%
14:00 +19°C° 0.1 mm 1 m/s 754 mmHg 81%
15:00 +19°C° 0.1 mm 1 m/s 753 mmHg 80%
16:00 +19°C° 0 mm 1 m/s 753 mmHg 79%
17:00 +20°C° 0 mm 1 m/s 753 mmHg 78%
18:00 +20°C° 0 mm 1 m/s 753 mmHg 77%
19:00 +19°C° 0 mm 1 m/s 753 mmHg 81%
20:00 +16°C° 0 mm 1 m/s 753 mmHg 86%
21:00 +15°C° 0 mm 1 m/s 753 mmHg 90%
22:00 +15°C° 0 mm 1 m/s 753 mmHg 90%
23:00 +15°C° 0 mm 1 m/s 753 mmHg 91%

Mâine, 12 August, Miercuri

Timp Temperatura Precipitaţii Vânt Presiune Umiditate
00:00 +15°C° 0 mm 1 m/s 753 mmHg 91%
01:00 +15°C° 0 mm 1 m/s 753 mmHg 91%
02:00 +14°C° 0 mm 1 m/s 753 mmHg 91%
03:00 +14°C° 0 mm 2 m/s 753 mmHg 91%
04:00 +14°C° 0 mm 2 m/s 753 mmHg 91%
05:00 +15°C° 0 mm 2 m/s 753 mmHg 91%
06:00 +14°C° 0 mm 3 m/s 753 mmHg 90%
07:00 +14°C° 0 mm 3 m/s 753 mmHg 89%
08:00 +16°C° 0 mm 3 m/s 753 mmHg 88%
09:00 +16°C° 0 mm 3 m/s 753 mmHg 87%
10:00 +17°C° 0 mm 3 m/s 753 mmHg 83%
11:00 +18°C° 0 mm 4 m/s 753 mmHg 79%
12:00 +19°C° 0 mm 4 m/s 753 mmHg 75%
13:00 +18°C° 0 mm 4 m/s 754 mmHg 76%
14:00 +17°C° 0 mm 5 m/s 754 mmHg 77%
15:00 +17°C° 0 mm 5 m/s 754 mmHg 78%
16:00 +16°C° 0 mm 5 m/s 754 mmHg 81%
17:00 +15°C° 0 mm 5 m/s 754 mmHg 85%
18:00 +14°C° 0 mm 5 m/s 754 mmHg 88%
19:00 +14°C° 0 mm 5 m/s 754 mmHg 89%
20:00 +13°C° 0 mm 5 m/s 754 mmHg 91%
21:00 +13°C° 0 mm 5 m/s 755 mmHg 92%
22:00 +12°C° 0 mm 5 m/s 755 mmHg 92%
23:00 +12°C° 0 mm 4 m/s 755 mmHg 91%

Poimâine, 13 August, Joi

Timp Temperatura Precipitaţii Vânt Presiune Umiditate
00:00 +12°C° 0 mm 4 m/s 755 mmHg 91%
01:00 +12°C° 0 mm 4 m/s 755 mmHg 91%
02:00 +12°C° 0 mm 5 m/s 755 mmHg 91%
03:00 +12°C° 0 mm 5 m/s 755 mmHg 92%
04:00 +12°C° 0 mm 5 m/s 755 mmHg 91%
05:00 +13°C° 0 mm 5 m/s 755 mmHg 90%
06:00 +13°C° 0 mm 5 m/s 755 mmHg 89%
07:00 +13°C° 0 mm 5 m/s 755 mmHg 86%
08:00 +14°C° 0 mm 5 m/s 755 mmHg 82%
09:00 +15°C° 0 mm 5 m/s 756 mmHg 79%
10:00 +15°C° 0 mm 5 m/s 755 mmHg 77%
11:00 +16°C° 0 mm 6 m/s 755 mmHg 74%
12:00 +16°C° 0 mm 6 m/s 755 mmHg 72%
13:00 +17°C° 0 mm 6 m/s 755 mmHg 71%
14:00 +17°C° 0 mm 6 m/s 755 mmHg 71%
15:00 +17°C° 0 mm 6 m/s 755 mmHg 70%
16:00 +16°C° 0 mm 6 m/s 755 mmHg 72%
17:00 +16°C° 0 mm 6 m/s 755 mmHg 73%
18:00 +15°C° 0 mm 6 m/s 755 mmHg 74%
19:00 +14°C° 0 mm 6 m/s 755 mmHg 79%
20:00 +13°C° 0 mm 5 m/s 755 mmHg 84%
21:00 +12°C° 0 mm 5 m/s 755 mmHg 89%
22:00 +10°C° 0 mm 5 m/s 755 mmHg 91%
23:00 +10°C° 0 mm 5 m/s 755 mmHg 92%

14 August, Vineri

Timp Temperatura Precipitaţii Vânt Presiune Umiditate
00:00 +10°C° 0 mm 5 m/s 755 mmHg 93%
01:00 +11°C° 0 mm 4 m/s 754 mmHg 94%
02:00 +11°C° 0 mm 4 m/s 754 mmHg 94%
03:00 +11°C° 0 mm 4 m/s 754 mmHg 94%
04:00 +11°C° 0 mm 4 m/s 754 mmHg 94%
05:00 +11°C° 0 mm 4 m/s 754 mmHg 94%
06:00 +11°C° 0 mm 3 m/s 754 mmHg 94%
07:00 +12°C° 0 mm 3 m/s 754 mmHg 87%
08:00 +14°C° 0 mm 3 m/s 754 mmHg 80%
09:00 +16°C° 0 mm 3 m/s 754 mmHg 73%
10:00 +17°C° 0 mm 3 m/s 754 mmHg 70%
11:00 +18°C° 0 mm 3 m/s 754 mmHg 66%
12:00 +19°C° 0 mm 3 m/s 754 mmHg 63%
13:00 +19°C° 0 mm 3 m/s 754 mmHg 63%
14:00 +19°C° 0 mm 3 m/s 753 mmHg 63%
15:00 +19°C° 0 mm 3 m/s 753 mmHg 64%
16:00 +18°C° 0 mm 3 m/s 753 mmHg 67%
17:00 +17°C° 0 mm 3 m/s 753 mmHg 70%
18:00 +17°C° 0 mm 3 m/s 753 mmHg 73%
19:00 +15°C° 0 mm 2 m/s 754 mmHg 79%
20:00 +14°C° 0 mm 2 m/s 754 mmHg 85%
21:00 +13°C° 0 mm 2 m/s 754 mmHg 90%
22:00 +13°C° 0 mm 2 m/s 754 mmHg 90%
23:00 +12°C° 0 mm 2 m/s 754 mmHg 91%

15 August, Sâmbătă

Timp Temperatura Precipitaţii Vânt Presiune Umiditate
00:00 +12°C° 0 mm 2 m/s 754 mmHg 91%
01:00 +12°C° 0 mm 2 m/s 754 mmHg 90%
02:00 +12°C° 0 mm 2 m/s 754 mmHg 89%
03:00 +10°C° 0 mm 2 m/s 754 mmHg 88%
04:00 +10°C° 0 mm 2 m/s 754 mmHg 85%
05:00 +12°C° 0 mm 2 m/s 753 mmHg 83%
06:00 +12°C° 0 mm 2 m/s 753 mmHg 81%
07:00 +13°C° 0 mm 2 m/s 754 mmHg 75%
08:00 +15°C° 0 mm 2 m/s 754 mmHg 69%
09:00 +17°C° 0 mm 2 m/s 754 mmHg 62%
10:00 +17°C° 0 mm 2 m/s 754 mmHg 61%
11:00 +18°C° 0 mm 3 m/s 754 mmHg 59%
12:00 +19°C° 0 mm 3 m/s 754 mmHg 57%
13:00 +19°C° 0 mm 3 m/s 754 mmHg 58%
14:00 +19°C° 0 mm 4 m/s 754 mmHg 59%
15:00 +19°C° 0 mm 4 m/s 753 mmHg 59%
16:00 +18°C° 0 mm 4 m/s 753 mmHg 63%
17:00 +18°C° 0 mm 4 m/s 753 mmHg 67%
18:00 +17°C° 0 mm 4 m/s 753 mmHg 71%
19:00 +15°C° 0 mm 4 m/s 753 mmHg 78%
20:00 +14°C° 0 mm 4 m/s 753 mmHg 84%
21:00 +12°C° 0 mm 4 m/s 753 mmHg 90%
22:00 +12°C° 0 mm 3 m/s 753 mmHg 92%
23:00 +12°C° 0 mm 3 m/s 753 mmHg 94%

16 August, Duminică

Timp Temperatura Precipitaţii Vânt Presiune Umiditate
00:00 +12°C° 0 mm 3 m/s 753 mmHg 96%
01:00 +13°C° 0 mm 3 m/s 753 mmHg 96%
02:00 +13°C° 0 mm 3 m/s 753 mmHg 96%
03:00 +14°C° 0 mm 2 m/s 753 mmHg 96%
04:00 +14°C° 0 mm 2 m/s 753 mmHg 95%
05:00 +15°C° 0 mm 2 m/s 752 mmHg 95%
06:00 +15°C° 0 mm 2 m/s 752 mmHg 94%
07:00 +16°C° 0 mm 2 m/s 752 mmHg 89%
08:00 +18°C° 0 mm 1 m/s 753 mmHg 84%
09:00 +19°C° 0 mm 1 m/s 753 mmHg 79%
10:00 +19°C° 0 mm 1 m/s 753 mmHg 79%
11:00 +19°C° 0 mm 1 m/s 752 mmHg 80%
12:00 +19°C° 0 mm 1 m/s 752 mmHg 80%
13:00 +19°C° 0 mm 1 m/s 752 mmHg 79%
14:00 +20°C° 0 mm 1 m/s 752 mmHg 77%
15:00 +20°C° 0 mm 1 m/s 752 mmHg 76%
16:00 +20°C° 0 mm 1 m/s 751 mmHg 76%
17:00 +20°C° 0 mm 1 m/s 751 mmHg 77%
18:00 +20°C° 0 mm 1 m/s 751 mmHg 77%
19:00 +19°C° 0 mm 1 m/s 751 mmHg 82%
20:00 +18°C° 0 mm 1 m/s 751 mmHg 87%
21:00 +16°C° 0 mm 1 m/s 751 mmHg 92%
22:00 +15°C° 0 mm 1 m/s 751 mmHg 93%
23:00 +15°C° 0 mm 1 m/s 750 mmHg 93%
Arată mai mult